• In Czech Republic
  • List of Countries
  • For 7 days
  • Water Temperature
  • Satellite Maps
  • Weather Map
  • Weather Widgets
  • user-avatar
    Login

    Hourly Weather Regina

    Today, 21 October, Saturday

    Time Temperature Precipitation Wind Pressure Humidity
    00:00 +10°C° 0 mm 6 mps 691 mmHg 54%
    01:00 +10°C° 0 mm 6 mps 692 mmHg 59%
    02:00 +9°C° 0 mm 6 mps 692 mmHg 65%
    03:00 +9°C° 0 mm 6 mps 693 mmHg 69%
    04:00 +8°C° 0 mm 5 mps 693 mmHg 73%
    05:00 +8°C° 0 mm 5 mps 694 mmHg 77%
    06:00 +8°C° 0 mm 5 mps 694 mmHg 77%
    07:00 +8°C° 0 mm 6 mps 695 mmHg 78%
    08:00 +8°C° 0 mm 6 mps 695 mmHg 78%
    09:00 +8°C° 0.2 mm 7 mps 696 mmHg 77%
    10:00 +8°C° 0.2 mm 7 mps 696 mmHg 76%
    11:00 +8°C° 0.2 mm 7 mps 697 mmHg 75%
    12:00 +6°C° 0.4 mm 8 mps 697 mmHg 73%
    13:00 +6°C° 0.4 mm 8 mps 698 mmHg 72%
    14:00 +6°C° 0.4 mm 9 mps 698 mmHg 70%
    15:00 +6°C° 0.3 mm 9 mps 699 mmHg 66%
    16:00 +6°C° 0.3 mm 9 mps 700 mmHg 63%
    17:00 +6°C° 0.3 mm 8 mps 701 mmHg 59%
    18:00 +6°C° 0 mm 8 mps 701 mmHg 58%
    19:00 +5°C° 0 mm 7 mps 702 mmHg 57%
    20:00 +5°C° 0 mm 6 mps 702 mmHg 56%
    21:00 +5°C° 0 mm 5 mps 702 mmHg 59%
    22:00 +5°C° 0 mm 4 mps 702 mmHg 61%
    23:00 +4°C° 0 mm 4 mps 702 mmHg 63%

    Tomorrow, 22 October, Sunday

    Time Temperature Precipitation Wind Pressure Humidity
    00:00 +4°C° 0 mm 3 mps 702 mmHg 64%
    01:00 +3°C° 0 mm 3 mps 702 mmHg 65%
    02:00 +3°C° 0 mm 3 mps 702 mmHg 65%
    03:00 +3°C° 0 mm 3 mps 702 mmHg 63%
    04:00 +3°C° 0 mm 3 mps 702 mmHg 61%
    05:00 +3°C° 0 mm 3 mps 701 mmHg 60%
    06:00 +4°C° 0.1 mm 3 mps 701 mmHg 57%
    07:00 +4°C° 0.1 mm 3 mps 700 mmHg 54%
    08:00 +5°C° 0.1 mm 4 mps 700 mmHg 52%
    09:00 +7°C° 0.1 mm 4 mps 700 mmHg 50%
    10:00 +9°C° 0.1 mm 5 mps 699 mmHg 48%
    11:00 +12°C° 0.1 mm 5 mps 699 mmHg 46%
    12:00 +13°C° 0 mm 6 mps 699 mmHg 44%
    13:00 +14°C° 0 mm 7 mps 698 mmHg 41%
    14:00 +13°C° 0 mm 8 mps 698 mmHg 39%
    15:00 +12°C° 0 mm 7 mps 699 mmHg 41%
    16:00 +11°C° 0 mm 6 mps 699 mmHg 43%
    17:00 +12°C° 0 mm 5 mps 699 mmHg 44%
    18:00 +10°C° 0 mm 6 mps 701 mmHg 48%
    19:00 +8°C° 0 mm 7 mps 702 mmHg 52%
    20:00 +6°C° 0 mm 7 mps 703 mmHg 56%
    21:00 +6°C° 0 mm 7 mps 703 mmHg 56%
    22:00 +6°C° 0 mm 7 mps 704 mmHg 56%
    23:00 +5°C° 0 mm 7 mps 705 mmHg 56%

    Day after tomorrow, 23 October, Monday

    Time Temperature Precipitation Wind Pressure Humidity
    00:00 +5°C° 0 mm 7 mps 706 mmHg 58%
    01:00 +5°C° 0 mm 7 mps 706 mmHg 60%
    02:00 +5°C° 0 mm 7 mps 707 mmHg 62%
    03:00 +4°C° 0 mm 7 mps 707 mmHg 61%
    04:00 +4°C° 0 mm 7 mps 708 mmHg 61%
    05:00 +4°C° 0 mm 7 mps 709 mmHg 60%
    06:00 +4°C° 0 mm 8 mps 709 mmHg 57%
    07:00 +5°C° 0 mm 9 mps 710 mmHg 54%
    08:00 +5°C° 0 mm 10 mps 711 mmHg 51%
    09:00 +5°C° 0 mm 10 mps 711 mmHg 49%
    10:00 +6°C° 0 mm 10 mps 712 mmHg 47%
    11:00 +7°C° 0 mm 11 mps 712 mmHg 45%
    12:00 +7°C° 0 mm 11 mps 713 mmHg 43%
    13:00 +8°C° 0 mm 11 mps 713 mmHg 41%
    14:00 +8°C° 0 mm 11 mps 714 mmHg 39%
    15:00 +8°C° 0 mm 9 mps 714 mmHg 41%
    16:00 +7°C° 0 mm 8 mps 715 mmHg 43%
    17:00 +7°C° 0 mm 6 mps 715 mmHg 46%
    18:00 +7°C° 0 mm 6 mps 716 mmHg 47%
    19:00 +5°C° 0 mm 6 mps 716 mmHg 48%
    20:00 +5°C° 0 mm 6 mps 717 mmHg 50%
    21:00 +5°C° 0 mm 6 mps 717 mmHg 51%
    22:00 +4°C° 0 mm 6 mps 718 mmHg 53%
    23:00 +4°C° 0 mm 6 mps 718 mmHg 55%

    24 October, Tuesday

    Time Temperature Precipitation Wind Pressure Humidity
    00:00 +5°C° 0 mm 5 mps 718 mmHg 57%
    01:00 +3°C° 0 mm 5 mps 719 mmHg 59%
    02:00 +3°C° 0 mm 5 mps 719 mmHg 61%
    03:00 +2°C° 0 mm 5 mps 719 mmHg 62%
    04:00 +3°C° 0 mm 4 mps 719 mmHg 64%
    05:00 +3°C° 0 mm 4 mps 719 mmHg 65%
    06:00 +3°C° 0 mm 4 mps 718 mmHg 64%
    07:00 +3°C° 0 mm 4 mps 718 mmHg 63%
    08:00 +3°C° 0 mm 5 mps 718 mmHg 61%
    09:00 +5°C° 0 mm 5 mps 717 mmHg 52%
    10:00 +7°C° 0 mm 5 mps 716 mmHg 43%
    11:00 +9°C° 0 mm 6 mps 716 mmHg 34%
    12:00 +11°C° 0 mm 6 mps 714 mmHg 33%
    13:00 +13°C° 0 mm 6 mps 713 mmHg 31%
    14:00 +14°C° 0 mm 7 mps 712 mmHg 29%
    15:00 +13°C° 0 mm 6 mps 711 mmHg 33%
    16:00 +13°C° 0 mm 6 mps 710 mmHg 36%
    17:00 +13°C° 0 mm 5 mps 708 mmHg 40%
    18:00 +13°C° 0 mm 5 mps 707 mmHg 40%
    19:00 +11°C° 0 mm 6 mps 706 mmHg 41%
    20:00 +11°C° 0 mm 6 mps 705 mmHg 42%
    21:00 +11°C° 0 mm 6 mps 704 mmHg 43%
    22:00 +12°C° 0 mm 5 mps 702 mmHg 44%
    23:00 +10°C° 0 mm 5 mps 701 mmHg 44%

    25 October, Wednesday

    Time Temperature Precipitation Wind Pressure Humidity
    00:00 +10°C° 0 mm 6 mps 700 mmHg 44%
    01:00 +10°C° 0 mm 6 mps 699 mmHg 44%
    02:00 +10°C° 0 mm 6 mps 698 mmHg 44%
    03:00 +9°C° 0.1 mm 7 mps 698 mmHg 50%
    04:00 +6°C° 0.1 mm 8 mps 699 mmHg 56%
    05:00 +3°C° 0.1 mm 9 mps 699 mmHg 62%
    06:00 +4°C° 0.1 mm 8 mps 700 mmHg 62%
    07:00 +4°C° 0.1 mm 7 mps 700 mmHg 61%
    08:00 +3°C° 0.1 mm 7 mps 701 mmHg 61%
    09:00 +4°C° 0 mm 8 mps 701 mmHg 54%
    10:00 +4°C° 0 mm 8 mps 701 mmHg 47%
    11:00 +3°C° 0 mm 9 mps 702 mmHg 40%
    12:00 +3°C° 0 mm 9 mps 701 mmHg 36%
    13:00 +3°C° 0 mm 10 mps 701 mmHg 33%
    14:00 +2°C° 0 mm 10 mps 701 mmHg 30%
    15:00 +1°C° 0 mm 9 mps 702 mmHg 33%
    16:00 +1°C° 0 mm 9 mps 703 mmHg 36%
    17:00 0°C° 0 mm 8 mps 703 mmHg 39%
    18:00 -1°C° 0 mm 8 mps 704 mmHg 47%
    19:00 -1°C° 0 mm 8 mps 705 mmHg 55%
    20:00 -1°C° 0 mm 8 mps 705 mmHg 62%
    21:00 -3°C° 0.1 mm 9 mps 706 mmHg 62%
    22:00 -4°C° 0.1 mm 9 mps 707 mmHg 62%
    23:00 -5°C° 0.1 mm 9 mps 708 mmHg 62%

    26 October, Thursday

    Time Temperature Precipitation Wind Pressure Humidity
    00:00 -6°C° 0 mm 8 mps 709 mmHg 60%
    01:00 -7°C° 0 mm 8 mps 710 mmHg 58%
    02:00 -8°C° 0 mm 7 mps 710 mmHg 56%
    03:00 -8°C° 0 mm 7 mps 711 mmHg 56%
    04:00 -8°C° 0 mm 7 mps 711 mmHg 56%
    05:00 -8°C° 0 mm 7 mps 712 mmHg 56%
    06:00 -8°C° 0 mm 7 mps 712 mmHg 55%
    07:00 -8°C° 0 mm 7 mps 713 mmHg 54%
    08:00 -8°C° 0 mm 7 mps 713 mmHg 53%
    09:00 -8°C° 0 mm 7 mps 713 mmHg 51%
    10:00 -7°C° 0 mm 7 mps 714 mmHg 48%
    11:00 -7°C° 0 mm 7 mps 714 mmHg 46%
    12:00 -7°C° 0 mm 7 mps 714 mmHg 44%
    13:00 -6°C° 0 mm 7 mps 714 mmHg 43%
    14:00 -5°C° 0 mm 6 mps 713 mmHg 42%
    15:00 -5°C° 0 mm 6 mps 713 mmHg 44%
    16:00 -6°C° 0 mm 5 mps 714 mmHg 45%
    17:00 -6°C° 0 mm 5 mps 714 mmHg 47%
    18:00 -5°C° 0 mm 4 mps 714 mmHg 49%
    19:00 -5°C° 0 mm 4 mps 714 mmHg 50%
    20:00 -5°C° 0 mm 3 mps 714 mmHg 52%
    21:00 -6°C° 0 mm 3 mps 714 mmHg 54%
    22:00 -6°C° 0 mm 3 mps 714 mmHg 57%
    23:00 -7°C° 0 mm 3 mps 713 mmHg 60%
    Show more